Preview of NWS' New Version of Forecast
This preview is not operational and should not be used for support decisions.

Regional Weather Roundup (RWR)

Issued by National Weather Service (NWS)

                            
000
ASUS42 KTBW 200515
RWRFL 
FLORIDA REGIONAL WEATHER ROUNDUP
NATIONAL WEATHER SERVICE TAMPA BAY RUSKIN FL
100 AM EDT SAT APR 20 2019

NOTE: "FAIR" INDICATES FEW OR NO CLOUDS BELOW 12,000 FEET WITH NO
SIGNIFICANT WEATHER AND/OR OBSTRUCTIONS TO VISIBILITY.

FLZ001>010-012>015-112-114-115-200600-
PANHANDLE FLORIDA
  
CITY           SKY/WX    TMP DP  RH WIND       PRES   REMARKS
PENSACOLA      FAIR      53  45  74 W8        29.91R                  
PENSACOLA NAS  FAIR      54  45  71 NW5       29.91R                  
MILTON NAS     FAIR      49  45  86 W8        29.90R                  
CRESTVIEW      FAIR      51  45  79 W8        29.89R                  
DUKE FIELD     FAIR      52  45  76 W9        29.87R                  
VALPARAISO     FAIR      54  44  71 W13       29.88R                  
MARY ESTHER    CLEAR     54  47  77 NW9       29.88R                  
PANAMA CITY    FAIR      53  47  79 CALM      29.86R                  
TYNDALL AFB    FAIR      57  45  64 NW12      29.87R                  
APALACHICOLA   MOCLDY    53  50  89 CALM      29.86F                  

STATION/POSITION SKY/WX   TEMP    WIND        PRES    WAVE   SWELL
                          AIR SEA DIR/SP/G            HT/PER HT/PER
                          (F)     (DEG/KT/KT) (MB)    (FT/S) (FT/S)
30.1N   87.6W                                 1013.3R   4/ 6   2/ 8
29.2N   88.2W                     310/ 23/ 29 1015.2R   8/ 7
PANAMA CITY BEAC           59 70  310/ 11/ 14 1011.6S
TOWER C          NOT AVBL

$$
FLZ011-016>038-118-127-128-134-139-239-200600-
NORTH FLORIDA
  
CITY           SKY/WX    TMP DP  RH WIND       PRES   REMARKS
MARIANNA       FAIR      53  46  77 SW6       29.84S                  
TALLAHASSEE    FAIR      55  45  68 W6        29.86R                  
PERRY          FAIR      58  46  63 W9        29.86R                  
LIVE OAK       CLEAR     55  48  76 CALM      29.84R                  
CROSS CITY     FAIR      59  47  65 W5        29.86R                  
LAKE CITY      FAIR      54  46  76 W6        29.85R                  
GAINESVILLE    FAIR      61  50  67 S7        29.88R                  
PALATKA        FAIR     N/A N/A N/A S6        29.86F                  
MAYPORT NAS    FAIR      63  50  62 SW13G21   29.83R                  
JACKSONVILLE   FAIR      60  49  66 SW12      29.83R                  
JAX NAS        FAIR      62  49  62 SW10      29.84S                  
JAX CECIL      FAIR      59  52  77 S6        29.84S                  
FERNANDINA BEA MOCLDY    60  50  69 W12       29.83R                  
ST AUGUSTINE   FAIR      60  53  77 SW7       29.86R                  
PALM COAST     FAIR      61  54  76 W7G16     29.87R                  

STATION/POSITION SKY/WX   TEMP    WIND        PRES    WAVE   SWELL
                          AIR SEA DIR/SP/G            HT/PER HT/PER
                          (F)     (DEG/KT/KT) (MB)    (FT/S) (FT/S)
SHELL POINT      NOT AVBL
KEATON BEACH               64     290/ 15/ 20 1011.1R
CEDAR KEY                  66     280/ 14/ 21 1011.2R
FERNANDINA                 63 70  240/  6/ 14 1010.5R
30.7N   81.3W                 68                N/A     4/ 7
MAYPORT                    63 68  240/ 12/ 15 1010.1R
31.4N   80.9W              65 67  240/ 27/ 33 1007.2R   7/ 5   2/ 9
ST AUGUSTINE               62 72  220/  6/  7 1010.9R

$$
FLZ040-043>046-052-053-057-058-063-144-200600-
INTERIOR CENTRAL FLORIDA
  
CITY           SKY/WX    TMP DP  RH WIND       PRES   REMARKS
OCALA          FAIR      61  51  70 SW3       29.89R                  
LEESBURG       FAIR      61  54  77 SW8       29.90R                  
SANFORD        FAIR      63  54  72 W13       29.87S                  
ORLANDO EXEC   FAIR      65  52  62 W14       29.88S                  
ORLANDO INTL   FAIR      64  51  62 W13G26    29.89S                  
KISSIMMEE      FAIR      61  55  81 W9        29.90S                  
WINTER HAVEN   FAIR      64  56  75 W8        29.92R                  
BARTOW         FAIR      63  55  77 W9        29.90F                  
SEBRING        FAIR      62  56  81 SW8       29.92S                  
OKEECHOBEE     MOCLDY    63  59  88 SW5       29.93R                  

$$
FLZ041-047-054-059-064-141-147-200600-
EAST CENTRAL FLORIDA
  
CITY           SKY/WX    TMP DP  RH WIND       PRES   REMARKS
DAYTONA BEACH  FAIR      60  57  89 W8        29.87R                  
DELAND         FAIR      63  54  72 SW9       29.88R                  
JFK SPACE CTR  FAIR      64  55  72 W14       29.88R                  
CAPE CANAVERAL FAIR      65  53  63 W15       29.87R                  
PATRICK AFB    FAIR      66  58  76 W14       29.89R                  
MELBOURNE      FAIR      65  55  70 W13       29.89R                  
VERO BEACH     MOCLDY    66  59  78 W10       29.91R                  
FT PIERCE      MOCLDY    65  58  78 W6        29.92R                  

STATION/POSITION SKY/WX   TEMP    WIND        PRES    WAVE   SWELL
                          AIR SEA DIR/SP/G            HT/PER HT/PER
                          (F)     (DEG/KT/KT) (MB)    (FT/S) (FT/S)
28.5N   80.2W              70     260/ 23/ 29 1012.1R   5/ 5   2/13
28.9N   78.5W              76 77  200/ 19/ 25 1010.9F   9/ 8
TRIDENT PIER               66 77  240/ 11/ 18 1013.2R
28.4N   80.5W                 77                N/A     3/ 6
27.5N   80.2W                 76                N/A     3/ 7

$$
FLZ050-056-061-142-242-148-248-149-249-151-251-155-255-
160-260-200600-
WEST CENTRAL FLORIDA
  
CITY           SKY/WX    TMP DP  RH WIND       PRES   REMARKS
CRYSTAL RIVER  FAIR      64  50  59 W10G16    29.88F                  
INVERNESS      FAIR      63  54  72 CALM      29.90R                  
BROOKSVILLE    FAIR      63  50  62 W10       29.91R                  
CLEARWATER AIR FAIR      66  46  48 W12G17    29.91F                  
ST PETE CLEARW FAIR      66  48  52 W10       29.91F                  
TAMPA INTL     FAIR      68  49  50 W15G28    29.92R                  
PLANT CITY     FAIR      64  52  63 W7        29.94S                  
MACDILL AFB    FAIR      67  51  54 W9G16     29.91S                  
PETER O KNIGHT FAIR      68  52  56 W10G18    29.92F                  
ST PETERSBURG    N/A    N/A N/A N/A MISG      29.90S                  
SARASOTA       MOCLDY    69  51  52 W16       29.91F                  
VENICE         FAIR      72  50  46 W20G26    29.94S                  

STATION/POSITION SKY/WX   TEMP    WIND        PRES    WAVE   SWELL
                          AIR SEA DIR/SP/G            HT/PER HT/PER
                          (F)     (DEG/KT/KT) (MB)    (FT/S) (FT/S)
27.3N   84.2W                 75                N/A    10/10   3/11
CLEARWATER BEACH           69 75  260/ 18/ 25 1013.1R
MIDDLE TAMPA BAY           70     290/ 19/ 23 1013.2S
VENICE                     72 77  270/ 20/ 23 1013.2F

$$
FLZ066-069-070-075>078-162-262-165-265-200600-
SOUTHWEST FLORIDA AND KEYS
  
CITY           SKY/WX    TMP DP  RH WIND       PRES   REMARKS
PUNTA GORDA    FAIR      68  53  58 W12       29.93F                  
FT MYERS       FAIR      68  56  65 W8        29.92F                  
SOUTHWEST INTL FAIR      65  56  72 W6        29.93F                  
NAPLES         CLOUDY    73  59  61 W12       29.93F                  
MARCO ISLAND   FAIR      72  58  61 W10       29.94F                  
IMMOKALEE      MOCLDY    66  57  72 W3        29.92S                  
MARATHON       FAIR      77  69  76 W13       29.93S                  
KEY WEST NAS   RAIN      75  69  81 NW18      29.94S                  
KEY WEST INTL  CLOUDY    74  70  87 NW13G22   29.94S                  

STATION/POSITION SKY/WX   TEMP    WIND        PRES    WAVE   SWELL
                          AIR SEA DIR/SP/G            HT/PER HT/PER
                          (F)     (DEG/KT/KT) (MB)    (FT/S) (FT/S)
NAPLES                     74 78  240/ 14/ 18 1013.7F
DRY TORTUGAS               75     340/ 14/ 17 1014.9F
SAND KEY                   76                 1014.2S
SOMBRERO KEY               76                 1013.1F

$$
FLZ067-068-071>074-168-172>174-200600-
SOUTHEAST FLORIDA 
  
CITY           SKY/WX    TMP DP  RH WIND       PRES   REMARKS
W PALM BEACH   CLOUDY    71  63  75 W13       29.91S                  
FT LAUDER-EXEC LGT RAIN  72  69  90 W8        29.90F                  
FT LAUDERDALE  MOCLDY    75  70  84 SW9       29.91F                  
POMPANO BEACH  MOCLDY    73  70  90 W7        29.91F                  
PEMBROKE PINES LGT RAIN  72  69  90 W5        29.93S                  
OPA LOCKA      CLOUDY    73  70  90 W8        29.92S                  
MIAMI          MOCLDY    73  71  93 SW5       29.92F                  
WEST KENDALL   CLOUDY    72  70  93 SW6       29.93R                  
HOMESTEAD      LGT RAIN  71  69  94 SW5       29.92R                  

STATION/POSITION SKY/WX   TEMP    WIND        PRES    WAVE   SWELL
                          AIR SEA DIR/SP/G            HT/PER HT/PER
                          (F)     (DEG/KT/KT) (MB)    (FT/S) (FT/S)
VIRGINIA KEY               74 82  230/ 10/ 13 1012.3F
LAKE WORTH                 71 80  240/  7/  9 1013.9F
SETTLEMENT POINT           74     240/ 28/ 31 1012.3F

$$